This is the latest recevied weather packets stored in our database for station/object W0WC. If no packets are shown the sender has not sent any weather packets the latest 10 day(s).
| Time | Temp. | Humidity | Pressure | Rain* | Wind** | Luminosity | Snow |
|---|---|---|---|---|---|---|---|
| 1778175749 | 18.33° C | 41% | 1018 hPa | 0 mm | - | 801 W/m² | - |
| 1778175446 | 17.78° C | 41% | 1018 hPa | 0 mm | - | 795 W/m² | - |
| 1778175143 | 18.33° C | 44% | 1018.1 hPa | 0 mm | - | 788 W/m² | - |
| 1778174840 | 18.89° C | 39% | 1018.4 hPa | 0 mm | - | 787 W/m² | - |
| 1778174537 | 18.89° C | 42% | 1018.3 hPa | 0 mm | - | 782 W/m² | - |
| 1778174236 | 18.33° C | 42% | 1018.6 hPa | 0 mm | - | 783 W/m² | - |
| 1778173934 | 18.33° C | 41% | 1018.7 hPa | 0 mm | - | 781 W/m² | - |
| 1778173631 | 18.33° C | 42% | 1018.6 hPa | 0 mm | - | 637 W/m² | - |
| 1778173328 | 18.33° C | 41% | 1018.7 hPa | 0 mm | - | 761 W/m² | - |
| 1778173023 | 18.33° C | 41% | 1018.9 hPa | 0 mm | - | 759 W/m² | - |
| 1778172720 | 17.78° C | 40% | 1019 hPa | 0 mm | - | 752 W/m² | - |
| 1778172416 | 17.78° C | 40% | 1019 hPa | 0 mm | - | 745 W/m² | - |
| 1778172113 | 17.78° C | 42% | 1019.2 hPa | 0 mm | - | 735 W/m² | - |
| 1778171810 | 17.78° C | 39% | 1019 hPa | 0 mm | - | 726 W/m² | - |
| 1778171508 | 17.78° C | 42% | 1019.1 hPa | 0 mm | - | 716 W/m² | - |
| 1778171204 | 17.22° C | 41% | 1018.9 hPa | 0 mm | - | 709 W/m² | - |
| 1778170900 | 17.22° C | 40% | 1019.1 hPa | 0 mm | - | 700 W/m² | - |
| 1778170597 | 17.78° C | 40% | 1019 hPa | 0 mm | - | 691 W/m² | - |
| 1778170293 | 17.22° C | 41% | 1019.2 hPa | 0 mm | - | 681 W/m² | - |
| 1778169989 | 17.22° C | 42% | 1018.9 hPa | 0 mm | - | 671 W/m² | - |
| 1778169686 | 17.78° C | 40% | 1019.1 hPa | 0 mm | - | 661 W/m² | - |
| 1778169382 | 17.22° C | 43% | 1019.1 hPa | 0 mm | - | 650 W/m² | - |
| 1778169079 | 17.22° C | 40% | 1019.1 hPa | 0 mm | - | 640 W/m² | - |
| 1778168775 | 16.67° C | 43% | 1019 hPa | 0 mm | - | 629 W/m² | - |
| 1778168472 | 16.67° C | 42% | 1019.2 hPa | 0 mm | - | 618 W/m² | - |
* Rain latest hour (hover to see other rain measurements)
** Current wind speed in m/s (hover to see current wind gust speed)